Location: Gollag?dem
(17.0207°N, 80.7261°E)
Time: 15:15:42
(UTC+00:00)

OAO 3 Rocket - Pass Details

Date: 03 August 2024
Orbit: 621 x 669 km, 35.0° (Epoch: 12 September)

Event Time Altitude Azimuth Distance (km) Brightness Sun altitude
Rises 14:54:27 0° 311° (NW) 2,892 7.8 -24.1°
Reaches altitude 10° 14:56:54 10° 318° (NW) 1,981 6.6 -24.6°
Enters shadow 15:00:57 41° 18° (NNE) 902 3.9 -25.4°
